Location: *
(41.0833°N, 73.4167°W)
Time: 22:14:02
(UTC+00:00)

Cosmos 1610 Rocket - Pass Details

Date: 22 October 2019
Orbit: 953 x 1002 km, 82.9° (Epoch: 13 November)

Event Time Altitude Azimuth Distance (km) Brightness Sun altitude
Rises 09:09:17 0° 187° (S) 3,665 7.4 -23.9°
Reaches altitude 10° 09:11:46 10° 188° (S) 2,728 6.7 -23.5°
Maximum altitude 09:18:03 85° 277° (W) 1,001 4.4 -22.3°
Drops below altitude 10° 09:24:27 10° 6° (N) 2,775 7.0 -21.1°
Sets 09:27:00 0° 7° (N) 3,732 7.7 -20.6°
